Weather in Laguna Beach

United States     33°32′14″N   117°46′11″W
temp.,
°C
wind,
m/s
gust,
m/s
humid.,
%
clouds,
%
prec.,
mm/h
press.,
hPa
HPBL,
m
7 may, fri
fri723:00+15s228072 0.1 1017431
02:00+14s228173 0.0 1016459
05:00+14sse228081 0.1 1016537
08:00+15sse337625 0.0 1016541
11:00+16ssw33735 0.0 1016443
14:00+16ssw43737 0.0 1015442
17:00+15sw32767 0.0 1014441
20:00+15ssw11783 0.0 1014367
8 may, sat
sat823:00+15se568213 0.0 1014508
02:00+15se568071 0.0 1013617
05:00+15se66795 0.0 1013536
08:00+16sse55720 0.0 1014614
11:00+16s54720 0.0 1014495
14:00+16s43720 0.0 1013427
17:00+16s43730 0.0 1012365
20:00+16sse34760 0.0 1012318
9 may, sun
sun923:00+16se44790 0.0 1013359
02:00+15se55831 0.0 1012433
05:00+15se568314 0.0 1012506
08:00+16se567840 0.0 1012610
11:00+16sse557432 0.0 1013629
14:00+17s55736 0.0 1011581
17:00+16s44759 0.0 1010553
20:00+16sse557862 0.0 1010666
10 may, mon
mon1023:00+15se677892 0.1 1011771
02:00+15se678081 0.1 1010794
05:00+15se677972 0.2 1010783
08:00+16se567665 0.1 1011649
11:00+17s557217 0.1 1012625
14:00+17ssw54718 0.0 1011578
17:00+16s33716 0.0 1011529
20:00+15sse33740 0.0 1011338
11 may, tue
tue1123:00+15se34760 0.0 1013456
02:00+15sse33794 0.0 1012463
05:00+15sse238015 0.0 1013396
08:00+15ssw11778 0.0 1014358
11:00+16sw32741 0.0 1014345
14:00+17wsw437216 0.0 1014386
17:00+17wsw337212 0.0 1013390
20:00+16ssw21740 0.0 1014309